Retour au catalogue

COSMOS 1285

ActifMilitaireHEO
NORAD 12627·PAYLOAD·🇷🇺 Russia

Lancé Aug 4, 1981 depuis Plesetsk Cosmodrome

Loading…

Prochains Passages (prochaines 24 heures)

TLE

FraisSource: Space-Track

Époque: Sep 13, 2026, 20:31 UTC

1 12627U 81071A   26256.85550244  .00000346  00000-0  00000+0 0  9991
2 12627  68.7468  86.6984 5951460 349.9971 207.7569  1.98052331248251

Suivez COSMOS 1285 en temps réel avec AllMySat

Download on the App Store